Location: Lake Almanor
(40.2485°N, 121.1442°W)
Time: 23:07:15
(UTC-08:00)

STARLINK-1079 - Pass Details

Date: 31 January 2020
Orbit: 349 x 351 km, 53.0° (Epoch: 22 February)

Event Time Altitude Azimuth Distance (km) Brightness Sun altitude
Rises 19:46:27 0° 295° (WNW) 2,167 7.7 -27.8°
Reaches altitude 10° 19:48:51 10° 276° (W) 1,319 6.5 -28.2°
Enters shadow 19:49:21 13° 269° (W) 1,177 6.2 -28.3°
